When you browse on this site, cookies collect data to enhance your experience and personalize the content and advertising you see.
Visit our Privacy Policy to learn more. By continuing to use the site, you agree to this use of cookies and data.
  • In Belgium
  • List of Countries
  • For 7 days
  • Water Temperature
  • Satellite Maps
  • Weather Map
  • Weather Widgets
  • user-avatar
    Login

    Hourly Weather Podewsie

    Today, 18 November, Sunday

    Time Temperature Precipitation Wind Pressure Humidity
    00:00 -2°C° 0 mm 2 mps 764 mmHg 58%
    01:00 -2°C° 0 mm 2 mps 763 mmHg 57%
    02:00 -2°C° 0 mm 2 mps 763 mmHg 57%
    03:00 -2°C° 0 mm 2 mps 763 mmHg 57%
    04:00 0°C° 0 mm 1 mps 762 mmHg 57%
    05:00 0°C° 0 mm 1 mps 762 mmHg 56%
    06:00 0°C° 0 mm 1 mps 761 mmHg 56%
    07:00 -1°C° 0 mm 1 mps 761 mmHg 55%
    08:00 +1°C° 0 mm 1 mps 761 mmHg 51%
    09:00 +2°C° 0 mm 1 mps 761 mmHg 46%
    10:00 +3°C° 0 mm 1 mps 760 mmHg 41%
    11:00 +2°C° 0 mm 2 mps 760 mmHg 40%
    12:00 +3°C° 0 mm 2 mps 759 mmHg 38%
    13:00 +3°C° 0 mm 2 mps 758 mmHg 36%
    14:00 +3°C° 0 mm 2 mps 758 mmHg 41%
    15:00 +2°C° 0 mm 2 mps 757 mmHg 46%
    16:00 +2°C° 0 mm 2 mps 757 mmHg 51%
    17:00 +2°C° 0 mm 2 mps 756 mmHg 60%
    18:00 +2°C° 0 mm 2 mps 756 mmHg 70%
    19:00 +1°C° 0 mm 2 mps 756 mmHg 80%
    20:00 +2°C° 0.1 mm 2 mps 756 mmHg 84%
    21:00 +2°C° 0.1 mm 2 mps 755 mmHg 88%
    22:00 +2°C° 0.1 mm 2 mps 755 mmHg 93%
    23:00 +1°C° 0 mm 3 mps 755 mmHg 93%

    Tomorrow, 19 November, Monday

    Time Temperature Precipitation Wind Pressure Humidity
    00:00 +1°C° 0 mm 3 mps 755 mmHg 93%
    01:00 +1°C° 0 mm 3 mps 755 mmHg 93%
    02:00 +1°C° 0.1 mm 3 mps 754 mmHg 93%
    03:00 +1°C° 0.1 mm 3 mps 754 mmHg 93%
    04:00 +1°C° 0.1 mm 3 mps 754 mmHg 93%
    05:00 +1°C° 0.1 mm 3 mps 754 mmHg 93%
    06:00 +1°C° 0.1 mm 3 mps 753 mmHg 94%
    07:00 +1°C° 0.1 mm 3 mps 753 mmHg 94%
    08:00 0°C° 0.1 mm 4 mps 753 mmHg 90%
    09:00 0°C° 0.1 mm 4 mps 753 mmHg 87%
    10:00 +1°C° 0.1 mm 5 mps 753 mmHg 84%
    11:00 +1°C° 0.1 mm 5 mps 753 mmHg 82%
    12:00 +1°C° 0.1 mm 5 mps 753 mmHg 79%
    13:00 +1°C° 0.1 mm 6 mps 753 mmHg 77%
    14:00 +1°C° 0 mm 5 mps 753 mmHg 77%
    15:00 +1°C° 0 mm 5 mps 753 mmHg 77%
    16:00 +1°C° 0 mm 5 mps 753 mmHg 77%
    17:00 0°C° 0 mm 5 mps 753 mmHg 78%
    18:00 0°C° 0 mm 5 mps 753 mmHg 79%
    19:00 -1°C° 0 mm 5 mps 753 mmHg 80%
    20:00 -1°C° 0 mm 5 mps 754 mmHg 82%
    21:00 -2°C° 0 mm 5 mps 754 mmHg 84%
    22:00 -2°C° 0 mm 5 mps 754 mmHg 85%
    23:00 -2°C° 0 mm 5 mps 754 mmHg 85%

    Day after tomorrow, 20 November, Tuesday

    Time Temperature Precipitation Wind Pressure Humidity
    00:00 -4°C° 0 mm 5 mps 754 mmHg 85%
    01:00 -3°C° 0 mm 4 mps 753 mmHg 84%
    02:00 -3°C° 0 mm 4 mps 753 mmHg 84%
    03:00 -4°C° 0 mm 5 mps 753 mmHg 83%
    04:00 -4°C° 0 mm 5 mps 753 mmHg 82%
    05:00 -3°C° 0 mm 4 mps 753 mmHg 82%
    06:00 -3°C° 0 mm 4 mps 752 mmHg 82%
    07:00 -3°C° 0 mm 4 mps 752 mmHg 82%
    08:00 -4°C° 0 mm 5 mps 752 mmHg 78%
    09:00 -2°C° 0 mm 5 mps 752 mmHg 75%
    10:00 -2°C° 0 mm 6 mps 752 mmHg 71%
    11:00 -1°C° 0 mm 6 mps 751 mmHg 68%
    12:00 -1°C° 0 mm 6 mps 750 mmHg 66%
    13:00 +1°C° 0 mm 6 mps 750 mmHg 63%
    14:00 +1°C° 0 mm 6 mps 749 mmHg 63%
    15:00 -1°C° 0 mm 6 mps 749 mmHg 64%
    16:00 -1°C° 0 mm 6 mps 748 mmHg 64%
    17:00 -2°C° 0.2 mm 6 mps 748 mmHg 67%
    18:00 -2°C° 0.2 mm 6 mps 748 mmHg 70%
    19:00 -2°C° 0.2 mm 6 mps 748 mmHg 73%
    20:00 -2°C° 0.5 mm 6 mps 747 mmHg 75%
    21:00 -2°C° 0.5 mm 6 mps 747 mmHg 78%
    22:00 -2°C° 0.5 mm 6 mps 747 mmHg 80%
    23:00 -1°C° 0.6 mm 5 mps 747 mmHg 83%

    21 November, Wednesday

    Time Temperature Precipitation Wind Pressure Humidity
    00:00 -1°C° 0.6 mm 5 mps 747 mmHg 86%
    01:00 -1°C° 0.6 mm 5 mps 748 mmHg 88%
    02:00 -1°C° 0.2 mm 5 mps 748 mmHg 89%
    03:00 -1°C° 0.2 mm 5 mps 748 mmHg 90%
    04:00 -1°C° 0.2 mm 5 mps 748 mmHg 91%
    05:00 -1°C° 0.1 mm 4 mps 748 mmHg 92%
    06:00 -1°C° 0.1 mm 4 mps 748 mmHg 92%
    07:00 -1°C° 0.1 mm 4 mps 749 mmHg 92%
    08:00 -1°C° 0 mm 4 mps 749 mmHg 92%
    09:00 -1°C° 0 mm 4 mps 749 mmHg 92%
    10:00 -1°C° 0 mm 4 mps 750 mmHg 91%
    11:00 0°C° 0 mm 4 mps 750 mmHg 91%
    12:00 0°C° 0 mm 4 mps 750 mmHg 91%
    13:00 0°C° 0 mm 4 mps 751 mmHg 90%
    14:00 0°C° 0 mm 4 mps 751 mmHg 90%
    15:00 0°C° 0 mm 4 mps 751 mmHg 91%
    16:00 -1°C° 0 mm 4 mps 751 mmHg 91%
    17:00 -1°C° 0.1 mm 4 mps 752 mmHg 91%
    18:00 -1°C° 0.1 mm 4 mps 752 mmHg 91%
    19:00 -1°C° 0.1 mm 4 mps 752 mmHg 91%
    20:00 -1°C° 0.1 mm 4 mps 753 mmHg 91%
    21:00 -1°C° 0.1 mm 4 mps 753 mmHg 91%
    22:00 -1°C° 0.1 mm 4 mps 753 mmHg 92%
    23:00 -1°C° 0 mm 4 mps 753 mmHg 92%

    22 November, Thursday

    Time Temperature Precipitation Wind Pressure Humidity
    00:00 -1°C° 0 mm 4 mps 753 mmHg 92%
    01:00 -1°C° 0 mm 4 mps 753 mmHg 92%
    02:00 0°C° 0.1 mm 3 mps 753 mmHg 92%
    03:00 0°C° 0.1 mm 3 mps 753 mmHg 92%
    04:00 0°C° 0.1 mm 3 mps 753 mmHg 92%
    05:00 0°C° 0.1 mm 3 mps 753 mmHg 93%
    06:00 0°C° 0.1 mm 3 mps 753 mmHg 93%
    07:00 0°C° 0.1 mm 3 mps 754 mmHg 93%
    08:00 0°C° 0.1 mm 3 mps 754 mmHg 92%
    09:00 0°C° 0.1 mm 3 mps 754 mmHg 92%
    10:00 +1°C° 0.1 mm 3 mps 754 mmHg 91%
    11:00 +1°C° 0.1 mm 3 mps 754 mmHg 91%
    12:00 +1°C° 0.1 mm 3 mps 754 mmHg 91%
    13:00 +1°C° 0.1 mm 3 mps 754 mmHg 91%
    14:00 +1°C° 0 mm 3 mps 754 mmHg 91%
    15:00 +1°C° 0 mm 3 mps 754 mmHg 92%
    16:00 +2°C° 0 mm 2 mps 755 mmHg 93%
    17:00 +2°C° 0 mm 2 mps 755 mmHg 93%
    18:00 +2°C° 0 mm 2 mps 755 mmHg 93%
    19:00 +2°C° 0 mm 2 mps 755 mmHg 94%
    20:00 +2°C° 0 mm 2 mps 755 mmHg 94%
    21:00 +2°C° 0 mm 2 mps 755 mmHg 94%
    22:00 +2°C° 0 mm 2 mps 755 mmHg 94%
    23:00 +2°C° 0 mm 2 mps 755 mmHg 94%

    23 November, Friday

    Time Temperature Precipitation Wind Pressure Humidity
    00:00 +1°C° 0 mm 2 mps 756 mmHg 94%
    01:00 +1°C° 0 mm 2 mps 756 mmHg 95%
    02:00 +1°C° 0 mm 2 mps 755 mmHg 95%
    03:00 +1°C° 0 mm 2 mps 755 mmHg 95%
    04:00 +1°C° 0 mm 2 mps 755 mmHg 95%
    05:00 +1°C° 0 mm 2 mps 755 mmHg 95%
    06:00 +2°C° 0 mm 1 mps 756 mmHg 95%
    07:00 +2°C° 0 mm 1 mps 756 mmHg 95%
    08:00 +3°C° 0 mm 1 mps 756 mmHg 94%
    09:00 +4°C° 0 mm 1 mps 756 mmHg 93%
    10:00 +5°C° 0 mm 1 mps 756 mmHg 92%
    11:00 +5°C° 0 mm 1 mps 756 mmHg 91%
    12:00 +6°C° 0 mm 1 mps 756 mmHg 89%
    13:00 +7°C° 0 mm 1 mps 756 mmHg 88%
    14:00 +6°C° 0 mm 1 mps 755 mmHg 90%
    15:00 +5°C° 0 mm 1 mps 755 mmHg 93%
    16:00 +5°C° 0 mm 1 mps 755 mmHg 95%
    17:00 +5°C° 0 mm 1 mps 755 mmHg 95%
    18:00 +5°C° 0 mm 1 mps 755 mmHg 95%
    19:00 +4°C° 0 mm 1 mps 755 mmHg 96%
    20:00 +5°C° 0 mm 1 mps 755 mmHg 95%
    21:00 +4°C° 0 mm 0 mps 755 mmHg 95%
    22:00 +4°C° 0 mm 0 mps 754 mmHg 95%
    23:00 +4°C° 0.2 mm 0 mps 754 mmHg 95%
    Show more